Location: Unspecified
(0.0000°N, 0.0000°E)
Time: 15:36:07
(UTC+00:00)

CUBESAT XI-V - Pass Details

Date: 11 December 2017
Orbit: 671 x 693 km, 97.9° (Epoch: 20 April)

Event Time Altitude Azimuth Distance (km) Brightness Sun altitude
Rises 02:52:38 0° 134° (SE) 3,019 ? -40.7°
Reaches altitude 10° 02:55:53 10° 109° (ESE) 2,106 ? -40.0°
Enters shadow 02:56:53 13° 97° (E) 1,935 ? -39.8°
